| time (UTC) | temp F | wind direction | speed MPH | gust MPH | rain 1hr in | rain 24hr in | rain mn in | humidity % | barometer mb |
| 20260831033039 | 88 | 207 | 7.0 | 14.0 | 0.00 | 0.00 | 0.00 | 29 | 1013.5 |
| 20260831031539 | 89 | 226 | 3.0 | 12.0 | 0.00 | 0.00 | 0.00 | 29 | 1013.3 |
| 20260831030038 | 89 | 244 | 3.0 | 12.0 | 0.00 | 0.00 | 0.00 | 29 | 1013.0 |
| 20260831024549 | 89 | 220 | 4.0 | 11.0 | 0.00 | 0.00 | 0.00 | 29 | 1012.7 |
| 20260831023037 | 89 | 207 | 6.0 | 12.0 | 0.00 | 0.00 | 0.00 | 29 | 1012.3 |
| 20260831021547 | 90 | 242 | 1.0 | 11.0 | 0.00 | 0.00 | 0.00 | 29 | 1012.1 |
| 20260831020035 | 91 | 219 | 3.0 | 10.0 | 0.00 | 0.00 | 0.00 | 28 | 1011.9 |
| 20260831014535 | 91 | 222 | 4.0 | 12.0 | 0.00 | 0.00 | 0.00 | 29 | 1011.7 |
| 20260831013035 | 92 | 221 | 4.0 | 14.0 | 0.00 | 0.00 | 0.00 | 28 | 1011.5 |
| 20260831011545 | 93 | 216 | 3.0 | 10.0 | 0.00 | 0.00 | 0.00 | 26 | 1011.3 |
| 20260831010036 | 93 | 205 | 4.0 | 10.0 | 0.00 | 0.00 | 0.00 | 26 | 1011.3 |
| 20260831004533 | 94 | 242 | 5.0 | 11.0 | 0.00 | 0.00 | 0.00 | 25 | 1011.2 |
| 20260831003036 | 95 | 225 | 1.0 | 6.0 | 0.00 | 0.00 | 0.00 | 26 | 1011.2 |
| 20260831001533 | 96 | 241 | 9.0 | 15.0 | 0.00 | 0.00 | 0.00 | 25 | 1011.1 |
| 20260831000040 | 97 | 360 | 3.0 | 9.0 | 0.00 | 0.00 | 0.00 | 25 | 1011.3 |
| 20260830234530 | 98 | 222 | 4.0 | 16.0 | 0.00 | 0.00 | 0.00 | 24 | 1011.2 |
| 20260830233029 | 98 | 261 | 7.0 | 12.0 | 0.00 | 0.00 | 0.00 | 25 | 1011.3 |
| 20260830231528 | 96 | 200 | 2.0 | 9.0 | 0.00 | 0.00 | 0.00 | 26 | 1011.5 |
| 20260830230026 | 96 | 242 | 4.0 | 9.0 | 0.00 | 0.00 | 0.00 | 26 | 1011.6 |
| 20260830224526 | 94 | 240 | 3.0 | 8.0 | 0.00 | 0.00 | 0.00 | 29 | 1011.7 |
| 20260830223024 | 96 | 238 | 2.0 | 10.0 | 0.00 | 0.00 | 0.00 | 26 | 1011.8 |
| 20260830221522 | 99 | 249 | 3.0 | 11.0 | 0.00 | 0.00 | 0.00 | 25 | 1011.9 |
| 20260830220022 | 98 | 65 | 3.0 | 10.0 | 0.00 | 0.00 | 0.00 | 24 | 1012.0 |
| 20260830214521 | 100 | 272 | 6.0 | 10.0 | 0.00 | 0.00 | 0.00 | 22 | 1012.1 |
| 20260830213018 | 99 | 263 | 8.0 | 12.0 | 0.00 | 0.00 | 0.00 | 23 | 1012.4 |
| 20260830211516 | 102 | 254 | 3.0 | 12.0 | 0.00 | 0.00 | 0.00 | 23 | 1012.5 |
| 20260830210013 | 97 | 337 | 1.0 | 17.0 | 0.00 | 0.00 | 0.00 | 26 | 1012.9 |
| 20260830204510 | 98 | 243 | 3.0 | 7.0 | 0.00 | 0.00 | 0.00 | 25 | 1013.3 |
| 20260830203007 | 98 | 267 | 6.0 | 13.0 | 0.00 | 0.00 | 0.00 | 25 | 1013.6 |
| 20260830201507 | 97 | 278 | 8.0 | 13.0 | 0.00 | 0.00 | 0.00 | 25 | 1014.0 |
| 20260830200003 | 99 | 253 | 4.0 | 14.0 | 0.00 | 0.00 | 0.00 | 26 | 1014.2 |
| 20260830194607 | 98 | 360 | 11.0 | 16.0 | 0.00 | 0.00 | 0.00 | 26 | 1014.5 |
| 20260830193104 | 96 | 181 | 4.0 | 10.0 | 0.00 | 0.00 | 0.00 | 28 | 1014.8 |
| 20260830191558 | 97 | 304 | 5.0 | 10.0 | 0.00 | 0.00 | 0.00 | 28 | 1015.1 |
| 20260830190053 | 97 | 360 | 6.0 | 14.0 | 0.00 | 0.00 | 0.00 | 27 | 1015.4 |
| 20260830184603 | 94 | 285 | 2.0 | 11.0 | 0.00 | 0.00 | 0.00 | 29 | 1015.6 |
| 20260830183051 | 94 | 272 | 6.0 | 11.0 | 0.00 | 0.00 | 0.00 | 30 | 1016.0 |
| 20260830181544 | 94 | 243 | 7.0 | 12.0 | 0.00 | 0.00 | 0.00 | 30 | 1016.3 |
| 20260830180040 | 93 | 360 | 7.0 | 15.0 | 0.00 | 0.00 | 0.00 | 31 | 1016.5 |
| 20260830174541 | 92 | 254 | 10.0 | 16.0 | 0.00 | 0.00 | 0.00 | 32 | 1016.6 |
| 20260830173033 | 93 | 242 | 1.0 | 9.0 | 0.00 | 0.00 | 0.00 | 32 | 1016.7 |
| 20260830171534 | 90 | 360 | 8.0 | 16.0 | 0.00 | 0.00 | 0.00 | 35 | 1016.8 |
| 20260830170026 | 91 | 360 | 5.0 | 13.0 | 0.00 | 0.00 | 0.00 | 35 | 1016.9 |
| 20260830164522 | 90 | 246 | 4.0 | 11.0 | 0.00 | 0.00 | 0.00 | 35 | 1017.0 |
| 20260830163020 | 90 | 251 | 4.0 | 10.0 | 0.00 | 0.00 | 0.00 | 36 | 1017.0 |
| 20260830161514 | 89 | 223 | 1.0 | 10.0 | 0.00 | 0.00 | 0.00 | 38 | 1017.0 |
| 20260830160011 | 87 | 229 | 2.0 | 10.0 | 0.00 | 0.00 | 0.00 | 41 | 1017.0 |
| 20260830154506 | 87 | 234 | 2.0 | 10.0 | 0.00 | 0.00 | 0.00 | 41 | 1017.0 |
| 20260830153101 | 87 | 360 | 3.0 | 9.0 | 0.00 | 0.00 | 0.00 | 40 | 1017.1 |
| 20260830151608 | 86 | 254 | 6.0 | 9.0 | 0.00 | 0.00 | 0.00 | 41 | 1017.0 |
| 20260830150059 | 84 | 229 | 2.0 | 5.0 | 0.00 | 0.00 | 0.00 | 45 | 1017.1 |
| 20260830144550 | 81 | 341 | 0.0 | 4.0 | 0.00 | 0.00 | 0.00 | 48 | 1017.2 |
| 20260830143043 | 80 | 341 | 0.0 | 4.0 | 0.00 | 0.00 | 0.00 | 50 | 1017.3 |
| 20260830141541 | 79 | 355 | 4.0 | 8.0 | 0.00 | 0.00 | 0.00 | 53 | 1017.6 |
| 20260830140033 | 78 | 336 | 3.0 | 8.0 | 0.00 | 0.00 | 0.00 | 54 | 1017.8 |
| 20260830134536 | 76 | 350 | 5.0 | 10.0 | 0.00 | 0.00 | 0.00 | 57 | 1017.6 |
| 20260830133024 | 74 | 327 | 3.0 | 11.0 | 0.00 | 0.00 | 0.00 | 59 | 1017.6 |
| 20260830131521 | 72 | 331 | 10.0 | 14.0 | 0.00 | 0.00 | 0.00 | 62 | 1017.5 |
| 20260830130017 | 72 | 331 | 11.0 | 14.0 | 0.00 | 0.00 | 0.00 | 62 | 1017.3 |
| 20260830124514 | 71 | 332 | 5.0 | 10.0 | 0.00 | 0.00 | 0.00 | 63 | 1017.2 |
| 20260830123021 | 71 | 360 | 4.0 | 6.0 | 0.00 | 0.00 | 0.00 | 64 | 1017.1 |
| 20260830121508 | 71 | 321 | 5.0 | 8.0 | 0.00 | 0.00 | 0.00 | 65 | 1016.9 |
| 20260830120006 | 71 | 5 | 2.0 | 5.0 | 0.00 | 0.00 | 0.00 | 65 | 1016.7 |
| 20260830114504 | 71 | 10 | 3.0 | 5.0 | 0.00 | 0.00 | 0.00 | 64 | 1016.7 |
| 20260830113000 | 72 | 360 | 3.0 | 5.0 | 0.00 | 0.00 | 0.00 | 62 | 1016.5 |
| 20260830111603 | 73 | 320 | 3.0 | 5.0 | 0.00 | 0.00 | 0.00 | 62 | 1016.6 |
| 20260830104555 | 73 | 334 | 4.0 | 5.0 | 0.00 | 0.00 | 0.00 | 61 | 1016.5 |
| 20260830103051 | 74 | 360 | 4.0 | 8.0 | 0.00 | 0.00 | 0.00 | 58 | 1016.5 |
| 20260830101551 | 74 | 360 | 8.0 | 10.0 | 0.00 | 0.00 | 0.00 | 58 | 1016.3 |
| 20260830100101 | 75 | 360 | 3.0 | 6.0 | 0.00 | 0.00 | 0.00 | 58 | 1016.4 |
| 20260830094547 | 75 | 360 | 1.0 | 4.0 | 0.00 | 0.00 | 0.00 | 58 | 1016.4 |
| 20260830093042 | 76 | 360 | 3.0 | 8.0 | 0.00 | 0.00 | 0.00 | 56 | 1016.2 |
| 20260830091542 | 77 | 360 | 3.0 | 8.0 | 0.00 | 0.00 | 0.00 | 55 | 1016.2 |
| 20260830090039 | 77 | 333 | 2.0 | 8.0 | 0.00 | 0.00 | 0.00 | 54 | 1016.2 |
| 20260830084612 | 77 | 360 | 4.0 | 5.0 | 0.00 | 0.00 | 0.00 | 54 | 1016.0 |
| 20260830083036 | 78 | 360 | 4.0 | 8.0 | 0.00 | 0.00 | 0.00 | 52 | 1015.7 |
| 20260830081532 | 78 | 360 | 0.0 | 2.0 | 0.00 | 0.00 | 0.00 | 53 | 1015.6 |
| 20260830080029 | 80 | 360 | 1.0 | 6.0 | 0.00 | 0.00 | 0.00 | 50 | 1015.8 |
| 20260830074526 | 81 | 360 | 1.0 | 3.0 | 0.00 | 0.00 | 0.00 | 49 | 1016.0 |
| 20260830073023 | 81 | 360 | 2.0 | 8.0 | 0.00 | 0.00 | 0.00 | 48 | 1016.0 |
| 20260830071522 | 82 | 360 | 4.0 | 14.0 | 0.00 | 0.00 | 0.00 | 47 | 1016.0 |
| 20260830070021 | 82 | 360 | 3.0 | 10.0 | 0.00 | 0.00 | 0.00 | 47 | 1016.0 |
| 20260830064520 | 82 | 360 | 4.0 | 11.0 | 0.00 | 0.00 | 0.00 | 47 | 1016.0 |
| 20260830063018 | 83 | 360 | 5.0 | 15.0 | 0.00 | 0.00 | 0.00 | 46 | 1016.2 |
| 20260830061528 | 83 | 259 | 3.0 | 17.0 | 0.00 | 0.00 | 0.00 | 46 | 1016.2 |
| 20260830060016 | 83 | 360 | 4.0 | 14.0 | 0.00 | 0.00 | 0.00 | 46 | 1016.1 |
| 20260830054513 | 83 | 360 | 11.0 | 17.0 | 0.00 | 0.00 | 0.00 | 46 | 1016.0 |
| 20260830053011 | 83 | 360 | 8.0 | 18.0 | 0.00 | 0.00 | 0.00 | 46 | 1016.0 |
| 20260830051509 | 84 | 360 | 9.0 | 16.0 | 0.00 | 0.00 | 0.00 | 45 | 1016.1 |
| 20260830050007 | 84 | 360 | 10.0 | 17.0 | 0.00 | 0.00 | 0.00 | 45 | 1016.1 |
| 20260830044506 | 84 | 360 | 5.0 | 12.0 | 0.00 | 0.00 | 0.00 | 45 | 1016.2 |
| 20260830043005 | 84 | 234 | 9.0 | 16.0 | 0.00 | 0.00 | 0.00 | 44 | 1016.2 |
| 20260830041505 | 84 | 230 | 9.0 | 16.0 | 0.00 | 0.00 | 0.00 | 43 | 1016.3 |
| 20260830040003 | 85 | 231 | 7.0 | 17.0 | 0.00 | 0.00 | 0.00 | 42 | 1016.3 |
| 20260830034503 | 85 | 238 | 7.0 | 17.0 | 0.00 | 0.00 | 0.00 | 42 | 1016.2 |